Regional Weather Roundup
Issued by NWS Wilmington, NC

Home | Current Version | Previous Version | Text Only | Print | Product List | Glossary On
Versions: 1 2 3 4 5 6 7 8 9 10 11 12 13 14 15 16 17 18 19 20 21 22 23 24 25 26 27 28 29 30 31 32 33 34 35 36 37 38 39 40 41 42 43 44 45 46 47 48 49 50
185
ASUS42 KILM 042112
RWRILM
RWRILM
REGIONAL HOURLY WEATHER ROUNDUP
NATIONAL WEATHER SERVICE WILMINGTON NC
400 PM EST SUN DEC 04 2016

NOTE: "FAIR" INDICATES FEW OR NO CLOUDS BELOW 12,000 FEET WITH NO
SIGNIFICANT WEATHER AND/OR OBSTRUCTIONS TO VISIBILITY.

...............WFO WILMINGTON COUNTY WARNING AREA...............

......COASTAL NC AND SC COUNTIES......

CITY           SKY/WX    TMP DP  RH WIND       PRES   REMARKS
WILMINGTON     CLOUDY    46  44  93 N9        30.20F
N MYRTLE BEACH LGT RAIN  48  40  73 NE8       30.16F
MYRTLE BEACH   CLOUDY    52  37  58 NE9       30.18F

......INLAND NC AND SC COUNTIES.......

CITY           SKY/WX    TMP DP  RH WIND       PRES   REMARKS
LUMBERTON      CLOUDY    44  43  96 NE8       30.18F
ELIZABETHTOWN  RAIN      44  44  98 N5        30.20S
WHITEVILLE     DRIZZLE   46  41  83 NE5       30.19R
FLORENCE       CLOUDY    47  42  83 NE7       30.18S
DARLINGTON     CLOUDY    45  41  86 NE7       30.18F
KINGSTREE      LGT RAIN  48  37  66 N5        30.17R
HARTSVILLE     CLOUDY    43  39  87 NE6       30.17S
BENNETTSVILLE  CLOUDY    46  45  93 NE7       30.17F
CONWAY         CLOUDY    46  37  71 NE8       30.17F
GEORGETOWN     NOT AVBL
MARION         CLOUDY    45  41  87 NE8       30.17F

....................REST OF NORTH CAROLINA......................

.........EASTERN NC.........

CITY           SKY/WX    TMP DP  RH WIND       PRES   REMARKS
CAPE HATTERAS  CLOUDY    50  41  71 VRB6      30.24R
JACKSONVILLE   LGT RAIN  45  43  93 N7        30.21F
MOREHEAD CITY  LGT RAIN  50  40  68 VRB6      30.22S
KENANSVILLE    LGT RAIN  45  43  93 CALM      30.23S FOG
NEW BERN       CLOUDY    50  39  66 NE3       30.24R
ELIZABETH CITY CLOUDY    49  34  56 CALM      30.24S

.........CENTRAL NC.........

CITY           SKY/WX    TMP DP  RH WIND       PRES   REMARKS
RALEIGH DURHAM LGT RAIN  46  37  71 S3        30.21F
ROCKY MOUNT    CLOUDY    47  36  65 CALM      30.22F
ROANOKE RAPIDS NOT AVBL
FAYETTEVILLE   LGT RAIN  44  43  96 NE3       30.21F FOG
HOFFMAN        LGT RAIN  42  41  95 E5        30.20F

.........WESTERN NC.........

CITY           SKY/WX    TMP DP  RH WIND       PRES   REMARKS
CHARLOTTE      CLOUDY    42  39  89 VRB7      30.18F
GREENSBORO     LGT RAIN  41  39  93 S5        30.19R FOG
HICKORY        NOT AVBL
BOONE          NOT AVBL
ASHEVILLE      NOT AVBL

.....................REST OF SOUTH CAROLINA.....................

.........EASTERN SC.........

CITY           SKY/WX    TMP DP  RH WIND       PRES   REMARKS
CHARLESTON     CLOUDY    59  49  69 E12       30.11F
BEAUFORT MCAS  CLOUDY    61  54  77 E10       30.08F
HILTON HEAD    NOT AVBL

.........CENTRAL SC.........

CITY           SKY/WX    TMP DP  RH WIND       PRES   REMARKS
COLUMBIA       LGT RAIN  48  41  76 NE8       30.13F
ORANGEBURG     CLOUDY    48  43  82 NE7       30.13S
SUMTER SHAW    CLOUDY    48  38  70 E10       30.13S

.........WESTERN SC.........

CITY           SKY/WX    TMP DP  RH WIND       PRES   REMARKS
GREENVILLE     NOT AVBL
ROCK HILL      LGT RAIN  42  40  92 E3        30.17F FOG
ANDERSON       LGT RAIN  43  40  89 NE8       30.13F FOG
CLEMSON        NOT AVBL
GREENWOOD      LGT RAIN  43  41  93 NE6       30.14F FOG


...................COASTAL AND OFFSHORE REPORTS..................

................LOCAL PIERS AND NC RESERVE................


STATION/POSITION TIME  SKY/WX   TEMP    WIND        PRES    VSBY
                                AIR SEA DIR/SP/G
                 (UTC)          (F)     (DEG/KT/KT) (MB)    (MI)
JOHNY MRCER PIER 2036            48 62   10/  9/ 12 1021.4F
NC RESRV MASNBRO 1945            49      60/  4     1021.0
OCEAN CREST PIER NOT AVBL
SPRINGMAID  PIER NOT AVBL


................COASTAL AND OFFSHORE BUOYS................


STATION/POSITION TIME  SKY/WX   TEMP    WIND        PRES    VSBY
                                AIR SEA DIR/SP/G
                 (UTC)          (F)     (DEG/KT/KT) (MB)    (MI)
DIMNDSHOAL 41025 2050            55 75   20/ 10/ 16 1023.5R
WVE H/P(F/S)=  4/ 8 SWL H/P/D(F/S/D)=  3/ 50/ 8

CAPE LOOKOUT     2000            50      10/  9/ 11 1022.8F
ONSLOW BAY 41036 NOT AVBL
ONSLOW BAY 41064 2008            55 74   40/ 14/ 17 1022.6F
ONSLOW BAY 41159 NOT AVBL
5SE WRITBC 41038 2008            50 63   40/ 12/ 17 1022.2
MASNBO INL 41110 2059               63                N/A
WVE H/P(F/S)=  3/ 9

WILM HARBR 41108 2056               62                N/A
WVE H/P(F/S)=  3/ 3

27SE WRITB 41037 2008            55 68   50/ 16/ 21 1021.9R
FRYING PAN 41013 2050            62 74   40/ 16/ 21 1021.0S
WVE H/P(F/S)=  4/ 5 SWL H/P/D(F/S/D)=  2/ 60/ 9

SUNST NRSH 41024 2008            50 60   40/ 12/ 17 1021.5F
CAPRS NRSH 41029 2008            59 62   60/ 17/ 23 1019.6F
EDISTO     41004 2050            70 75  120/ 12/ 17 1018.9F
WVE H/P(F/S)=  3/ 5 SWL H/P/D(F/S/D)=  2/110/ 8



..........OFFSHORE BUOYS BEYOND 100 NM OFFSHORE...........
.....IN A TRIANGLE---HAT TO BERMUDA TO BAHAMAS TO HAT.....


STATION/POSITION TIME  SKY/WX   TEMP    WIND        PRES    VSBY
                                AIR SEA DIR/SP/G
                 (UTC)          (F)     (DEG/KT/KT) (MB)    (MI)
150E HAT   41001 NOT AVBL
W BERMUDA  41048 2050            67 73  330/ 14/ 19 1019.7R
WVE H/P(F/S)=  9/10 SWL H/P/D(F/S/D)=  8/360/10

ATLANTIC S 41049 2050            72 76  340/ 14/ 17 1016.4R
WVE H/P(F/S)= 10/12 SWL H/P/D(F/S/D)=  8/340/12

E BAHAMAS  41046 2050            75 78   20/ 12/ 16 1017.1R
WVE H/P(F/S)=  4/ 6 SWL H/P/D(F/S/D)=  3/ 7

NE BAHAMAS 41047 2050            72 78   30/  8/ 10 1019.0R
WVE H/P(F/S)=  6/10 SWL H/P/D(F/S/D)=  5/ 30/10

120E CANVRL41010 NOT AVBL

END




USA.gov is the U.S. government's official web portal to all federal, state and local government web resources and services.